Location: Austin
(30.3000°N, 97.7500°W)
Time: 00:04:41
(UTC-05:00)

DELTA 2 R/B (1) - Pass Details

Date: 06 May 2026
Orbit: 787 x 800 km, 39.6° (Epoch: 13 May)

Event Time Altitude Azimuth Distance (km) Brightness Sun altitude
Rises 21:53:10 0° 232° (SW) 3,280 7.0 -20.2°
Reaches altitude 10° 21:55:40 10° 230° (SW) 2,351 6.2 -20.6°
Maximum altitude 22:01:10 67° 148° (SSE) 854 3.4 -21.6°
Enters shadow 22:03:21 36° 78° (ENE) 1,221 4.2 -21.9°
